Location: B?dargowo
(53.3916°N, 14.4413°E)
Time: 04:15:28
(UTC+00:00)

Cosmos 1340 Rocket - Pass Details

Date: 05 February 2023
Orbit: 515 x 558 km, 81.2° (Epoch: 24 March)

Event Time Altitude Azimuth Distance (km) Brightness Sun altitude
Rises 16:46:05 0° 196° (SSW) 2,642 6.8 -8.3°
Reaches altitude 10° 16:48:13 10° 198° (SSW) 1,765 5.9 -8.6°
Maximum altitude 16:52:05 74° 285° (WNW) 558 3.0 -9.1°
Drops below altitude 10° 16:56:04 10° 11° (N) 1,807 5.2 -9.7°
Sets 16:58:15 0° 13° (NNE) 2,713 6.1 -10.0°
